Orbital Elements at Epoch 2459200.5 (2020-Dec-17.0) TDB
Reference: JPL 35 (heliocentric ecliptic J2000)
Element | Value | Uncertainty (1-sigma) | Units |
e | .08314269448656998 | 3.5745e-08 | |
a | 2.568724230159549 | 1.2425e-08 | au |
q | 2.355153576271144 | 9.0421e-08 | au |
i | 14.70809324481458 | 5.5605e-06 | deg |
node | 9.857486164408131 | 1.4586e-05 | deg |
peri | 259.6301940030702 | 4.8384e-05 | deg |
M | 135.5032883842279 | 5.1058e-05 | deg |
tp | 2458634.492762700225 (2019-May-30.99276270) | 0.00021081 | TDB |
period | 1503.746572187515 4.12 | 1.0911e-05 2.987e-08 | d yr |
n | .2394020419785924 | 1.737e-09 | deg/d |
Q | 2.782294884047955 | 1.3458e-08 | au |
|
| | Orbit Determination Parameters
Additional Information
|